Wind_Speed
20 20 19 19 19 18 18 19 20 20 19 18 18 17 16 15 13 12 11 11 10 9 10 10 11 12 12 12 12 12 11 11 11 10 11 10 10 9 10 10 10 10 9 9 9 10 10 10 11
18 18 18 18 18 18 20 21 22 21 20 19 18 17 16 15 13 12 11 11 10 10 10 11 11 12 12 12 12 12 12 11 10 10 10 10 9 10 9 9 10 10 10 10 10 10 10 10 10
17 18 18 18 17 19 20 21 21 21 20 19 18 17 16 14 13 12 11 10 10 10 11 11 11 12 12 12 12 11 11 10 10 10 9 9 9 9 9 10 9 9 9 9 9 10 10 10 9
17 17 17 17 18 19 20 21 21 21 21 19 18 17 16 14 13 12 11 11 10 10 11 11 11 11 12 12 12 11 11 10 10 9 9 8 8 9 8 9 9 9 8 8 9 8 9 9 9
16 16 17 17 18 19 20 21 21 22 21 20 18 17 15 14 13 12 11 11 10 10 11 11 10 11 11 11 11 11 11 10 9 9 8 9 9 8 9 9 9 9 8 8 8 8 8 8 9
16 16 16 18 19 19 20 21 22 22 21 20 19 17 16 15 14 13 11 11 10 11 10 10 10 10 10 10 10 10 10 10 9 9 8 7 7 8 8 8 8 8 8 7 7 8 8 8 8
16 16 17 17 18 19 21 22 23 22 21 20 19 18 16 15 14 13 12 12 12 11 11 10 10 9 9 9 9 9 9 9 9 9 8 8 7 7 7 7 7 7 7 7 7 7 8 8 7
15 16 17 18 18 19 20 22 22 21 20 20 19 18 17 16 15 14 14 13 13 12 12 10 9 9 9 9 9 9 9 9 8 8 8 8 7 7 7 6 6 7 7 7 7 7 7 6 6
15 16 17 18 19 19 20 21 21 20 19 19 19 18 18 16 16 15 14 14 14 13 13 12 10 9 9 8 8 8 8 8 8 8 8 8 7 7 7 7 7 7 7 6 6 6 6 6 5
13 14 16 17 18 19 19 20 21 20 19 19 19 18 18 17 16 16 15 14 14 14 13 13 12 11 10 9 9 8 8 7 7 7 7 7 6 6 6 6 6 6 5 5 5 5 5 4 4
12 13 13 15 17 18 18 19 19 20 19 19 19 19 17 16 16 16 16 15 14 14 14 14 13 13 12 10 10 9 9 8 7 6 6 6 5 5 5 5 5 4 4 4 4 4 4 3 3
10 11 12 14 15 16 17 18 19 18 18 18 18 18 17 16 15 15 16 15 15 14 15 14 13 13 12 12 10 10 9 8 7 6 6 5 5 4 4 4 4 3 3 3 3 3 3 2 2
8 10 10 12 14 15 16 17 18 17 17 17 17 17 16 16 15 15 15 15 14 14 13 13 13 13 12 11 10 9 9 8 8 7 6 4 4 4 4 3 3 3 3 3 2 2 2 2 2
6 7 9 10 13 14 15 16 16 16 16 16 16 16 16 15 15 15 14 14 15 14 13 12 13 13 12 11 10 10 8 7 6 6 5 5 4 3 3 2 3 3 2 2 2 2 2 2 3
4 6 7 9 11 12 13 14 15 15 15 15 14 14 15 15 15 14 14 14 14 14 13 13 12 11 11 10 10 10 8 7 6 5 5 4 4 3 3 2 2 2 1 1 1 1 1 2 3
3 3 4 5 7 9 10 12 13 13 13 13 13 13 14 14 13 14 13 13 13 13 13 13 13 12 11 10 10 9 8 6 5 5 4 4 3 3 2 2 1 1 1 1 1 2 2 3 4
5 2 1 2 4 6 7 9 11 11 11 11 12 13 13 13 12 13 12 12 12 12 13 13 13 12 12 11 10 9 8 7 6 5 4 4 4 3 2 2 1 0 1 2 3 3 3 4 4
7 4 3 0 2 3 5 7 8 9 10 10 11 11 12 12 12 12 12 11 11 12 12 12 12 12 12 12 11 10 9 8 7 6 5 5 4 3 1 0 1 1 1 2 3 4 4 4 5
10 7 5 3 1 1 3 4 6 7 8 9 9 10 10 11 11 11 11 11 11 11 11 11 11 12 12 12 11 11 10 9 9 8 7 6 5 4 3 2 1 2 2 2 3 3 4 5 6
12 10 8 6 4 2 0 2 4 6 6 7 7 8 8 9 10 10 10 10 10 11 11 11 11 11 12 11 11 10 10 10 10 9 8 7 6 5 4 3 3 3 3 3 3 4 4 5 5
16 13 11 9 8 6 4 2 3 5 5 5 5 6 7 8 9 9 10 10 9 10 10 10 11 11 11 11 11 10 10 9 9 9 9 9 8 6 5 4 3 3 3 4 4 4 5 5 6
19 16 14 13 11 9 7 5 3 4 4 4 5 5 6 6 8 8 8 9 9 9 9 10 10 10 11 11 10 11 10 10 10 9 9 9 8 7 6 5 5 4 4 4 5 5 6 6 7
22 20 18 16 14 12 10 7 4 4 4 4 4 5 5 5 6 7 7 8 8 8 8 9 9 9 9 10 10 10 10 10 10 10 9 9 8 8 7 7 5 5 5 5 6 6 7 7 8
26 24 22 20 18 15 12 9 5 5 5 4 3 4 3 4 5 6 6 7 7 7 8 8 8 8 8 8 9 9 9 9 9 10 10 10 9 8 8 7 6 6 6 6 7 7 8 8 9
29 27 25 23 20 17 14 12 8 7 7 5 4 3 2 3 4 5 5 5 6 6 7 7 8 8 8 8 8 9 8 8 8 8 9 9 9 9 8 7 7 7 8 8 8 8 9 9 10
30 28 27 24 22 19 17 14 10 8 7 6 6 4 3 3 4 4 4 4 5 5 6 7 8 8 8 8 8 8 8 8 8 8 8 9 9 9 9 8 8 8 9 9 9 9 9 10 11
30 30 29 26 24 22 20 16 12 10 8 7 7 6 5 4 4 5 4 4 4 4 5 6 7 8 7 7 8 8 9 8 8 8 9 9 10 10 9 9 10 10 10 10 11 11 11 12 12
32 31 30 28 26 25 22 18 14 12 10 9 9 8 6 5 5 5 5 4 4 4 4 5 7 7 8 7 7 8 8 8 8 9 9 9 10 10 10 10 11 11 12 12 12 13 13 13 12
32 32 32 30 28 26 24 20 16 14 13 11 10 9 7 7 6 6 6 5 4 4 5 5 6 7 7 8 8 8 9 8 9 9 10 10 11 11 11 11 11 12 13 13 13 13 13 13 13
33 32 31 30 29 27 26 22 18 15 13 12 11 10 9 8 8 8 7 6 5 5 5 5 6 7 7 8 8 8 9 9 9 10 11 11 11 11 12 12 13 13 14 13 13 14 14 14 14
Wind_Direction
63 60 57 57 55 54 55 56 54 51 48 48 50 51 52 53 56 58 57 60 63 67 72 74 73 78 81 80 79 81 84 89 89 92 95 93 94 100 104 112 111 117 116 121 120 115 116 114 114
65 62 57 56 57 54 54 54 52 49 45 45 47 49 50 53 56 57 59 63 66 69 74 77 75 75 79 81 79 81 84 89 91 93 96 95 93 95 102 108 111 119 120 117 116 118 117 116 116
64 64 59 56 56 55 55 54 51 47 44 43 45 47 49 52 56 59 62 65 67 71 76 78 76 74 76 78 79 79 81 85 89 94 94 96 96 97 101 105 108 113 112 111 111 116 119 118 117
63 64 61 57 56 57 57 56 52 47 45 43 44 46 48 50 54 59 64 67 69 73 76 79 78 75 76 77 79 79 80 83 87 90 93 96 100 99 102 107 108 107 107 110 113 116 119 116 117
63 61 60 60 59 59 58 56 52 48 45 43 44 47 49 49 51 57 62 64 67 73 77 79 80 77 76 77 77 78 78 81 84 88 91 95 98 102 101 106 107 109 108 111 117 115 118 115 117
63 61 61 58 58 58 57 55 52 50 46 45 46 49 51 49 51 55 58 61 65 70 73 77 81 80 79 79 80 80 79 80 84 85 88 90 95 107 105 105 110 113 114 117 120 115 118 114 115
65 61 60 59 58 57 56 54 51 50 48 46 47 50 49 50 52 56 61 63 65 67 69 72 75 77 80 80 81 81 80 80 88 91 89 93 97 104 103 104 107 111 114 116 122 122 121 116 112
64 61 59 60 61 58 56 54 51 49 47 46 47 49 49 50 52 57 63 64 66 67 67 67 69 74 78 77 78 79 82 85 87 91 90 96 100 102 104 105 108 111 113 113 120 130 126 122 117
64 63 60 62 62 58 56 56 53 50 47 46 47 48 48 50 53 57 61 64 65 65 66 66 66 72 75 74 76 75 81 87 87 87 88 91 96 98 101 104 108 114 115 117 121 127 130 129 126
67 65 63 63 62 59 57 57 54 51 47 46 48 48 49 50 53 56 59 62 65 64 64 64 65 67 72 72 71 72 74 76 80 85 90 94 96 99 100 101 104 110 117 119 120 127 132 136 142
70 70 66 64 61 60 58 56 53 50 47 45 45 46 47 49 52 55 57 58 62 63 63 63 64 66 71 71 69 69 70 71 75 84 88 91 96 102 104 106 112 114 124 129 127 130 138 151 159
75 77 72 65 61 61 58 53 50 48 45 44 44 43 44 49 52 54 56 56 59 62 62 62 64 65 68 66 64 63 64 67 70 78 82 87 92 100 105 112 118 122 133 141 143 143 140 155 170
81 84 78 66 61 59 55 51 48 46 44 41 40 40 43 48 51 53 55 55 56 57 60 62 63 63 62 60 59 58 60 64 66 71 71 79 90 96 100 110 124 135 147 153 152 156 166 182 199
84 85 75 69 61 55 52 49 47 45 42 39 37 38 40 45 50 53 53 53 56 57 58 61 62 61 59 56 54 53 55 59 65 69 69 69 74 85 88 89 114 128 143 166 167 175 210 234 236
110 99 80 68 59 54 49 48 47 41 39 39 38 36 37 42 47 50 52 52 54 56 58 58 58 58 55 53 53 51 53 56 59 65 67 61 59 72 81 85 104 117 137 162 173 197 248 270 266
176 133 95 66 57 56 52 47 42 36 34 36 36 36 37 40 43 45 50 53 53 52 53 55 55 52 49 49 48 47 49 56 58 57 61 56 47 45 62 76 109 148 194 226 245 252 274 285 279
217 205 162 66 60 62 51 47 40 33 27 33 34 33 36 36 40 41 44 48 49 50 51 50 50 50 50 48 46 46 46 48 47 44 44 44 47 49 74 72 77 133 240 257 266 272 278 285 285
231 229 203 187 65 64 43 37 35 29 21 25 30 32 32 31 34 38 41 44 46 49 50 49 49 48 48 47 48 47 48 46 41 38 35 34 38 43 37 21 32 1 319 291 283 279 281 288 292
234 239 238 242 211 93 41 33 27 19 18 18 22 28 28 24 29 36 39 42 43 45 47 49 47 47 45 45 46 46 47 46 43 39 33 31 31 27 12 352 29 7 346 325 317 308 298 292 290
230 237 242 241 243 257 290 22 10 7 9 7 11 16 19 19 25 30 33 38 41 42 45 46 46 45 44 46 47 46 47 46 42 40 36 34 30 23 20 31 28 21 14 356 336 324 313 305 298
231 236 242 249 252 263 253 279 327 347 351 355 355 360 10 17 24 29 34 36 37 38 41 41 41 42 42 44 45 44 41 36 36 38 37 32 32 33 35 25 22 12 354 348 334 322 317 314 309
231 235 242 251 256 263 267 278 301 327 344 349 348 351 357 11 22 25 27 29 32 34 34 33 35 36 37 39 40 42 38 35 35 36 35 34 32 31 30 18 14 10 357 345 336 328 321 318 314
230 234 240 247 253 260 271 279 288 306 327 332 342 344 352 10 21 20 24 27 29 28 29 29 29 31 31 31 33 36 34 31 31 33 33 32 30 30 29 24 17 6 356 348 338 331 322 316 313
230 233 238 244 251 258 269 267 274 296 305 306 324 336 347 360 12 11 14 20 24 24 26 27 26 26 26 26 27 28 26 26 28 29 30 30 27 24 22 21 12 2 354 346 341 337 331 324 317
228 231 236 242 248 255 259 257 265 275 273 280 295 317 327 333 341 350 2 7 14 17 19 22 23 24 24 23 21 18 16 19 23 23 23 22 20 15 10 5 359 352 346 340 335 331 327 325 322
229 233 237 243 248 249 251 256 259 261 259 270 278 281 299 316 321 330 341 350 1 11 16 19 22 19 19 20 18 13 11 12 14 14 12 10 7 4 2 356 351 347 341 335 331 330 325 323 320
228 232 236 240 242 245 248 253 253 249 251 262 272 282 298 313 310 311 315 326 343 0 11 18 18 13 10 12 13 11 10 9 8 5 2 358 357 356 353 349 345 340 334 331 329 326 323 322 320
228 231 234 236 240 243 246 250 253 247 250 258 268 278 292 303 306 308 303 301 322 347 358 2 5 1 360 3 7 8 7 6 3 359 354 351 349 346 343 342 341 336 331 329 328 326 323 323 323
227 230 233 237 240 244 245 247 252 251 250 256 267 272 283 291 292 293 297 288 304 327 341 349 346 347 348 352 357 359 358 357 358 354 349 348 346 342 339 337 337 335 329 324 324 325 324 323 323
228 230 233 237 241 244 248 247 249 250 251 256 265 271 273 279 282 284 282 279 295 307 321 331 333 335 339 341 342 346 347 348 348 346 344 343 341 340 338 333 330 328 329 325 323 325 323 320 320
Height
5893 5892 5891 5890 5889 5887 5885 5883 5881 5879 5879 5878 5876 5875 5874 5873 5874 5875 5872 5870 5870 5869 5868 5867 5867 5866 5866 5865 5865 5865 5865 5865 5866 5867 5867 5868 5868 5869 5869 5869 5871 5872 5873 5874 5875 5876 5877 5878 5879
5895 5895 5895 5893 5891 5889 5887 5885 5883 5882 5881 5879 5877 5876 5875 5875 5874 5874 5872 5872 5872 5871 5870 5869 5868 5868 5867 5867 5867 5867 5867 5867 5868 5868 5869 5869 5870 5871 5871 5872 5873 5873 5875 5876 5877 5878 5879 5880 5881
5898 5898 5898 5895 5893 5891 5889 5887 5885 5884 5883 5881 5880 5878 5877 5877 5876 5875 5874 5874 5873 5873 5871 5871 5870 5870 5869 5869 5869 5869 5869 5869 5869 5870 5870 5871 5872 5872 5873 5873 5874 5875 5876 5877 5878 5879 5881 5881 5882
5902 5901 5900 5898 5895 5894 5892 5890 5888 5886 5885 5884 5882 5881 5879 5879 5878 5877 5876 5876 5875 5874 5873 5872 5872 5871 5871 5871 5871 5871 5871 5871 5871 5872 5872 5873 5873 5874 5874 5875 5876 5877 5878 5879 5880 5881 5882 5883 5884
5904 5903 5902 5900 5898 5896 5894 5892 5890 5888 5887 5886 5885 5883 5882 5881 5880 5879 5878 5878 5877 5876 5875 5874 5874 5873 5873 5872 5872 5872 5872 5873 5873 5873 5874 5874 5875 5875 5876 5877 5878 5878 5879 5881 5882 5883 5884 5884 5885
5906 5905 5904 5902 5900 5898 5896 5894 5892 5891 5890 5889 5887 5885 5884 5884 5882 5881 5880 5879 5878 5877 5876 5875 5875 5875 5875 5874 5874 5874 5874 5874 5875 5875 5876 5876 5877 5877 5878 5879 5879 5880 5881 5882 5883 5884 5885 5886 5887
5909 5907 5905 5904 5902 5901 5899 5897 5895 5894 5892 5891 5890 5888 5886 5886 5885 5883 5882 5881 5880 5879 5878 5877 5877 5876 5876 5876 5876 5876 5876 5876 5876 5877 5877 5878 5878 5879 5879 5880 5881 5882 5882 5883 5884 5885 5886 5887 5888
5910 5910 5908 5906 5904 5903 5902 5899 5898 5897 5895 5894 5892 5891 5889 5888 5887 5886 5884 5883 5882 5881 5880 5879 5878 5878 5878 5878 5877 5877 5877 5878 5878 5878 5878 5879 5880 5880 5881 5882 5882 5883 5884 5885 5885 5887 5887 5888 5889
5912 5912 5910 5908 5907 5906 5904 5903 5901 5900 5898 5897 5895 5893 5892 5890 5889 5888 5887 5885 5884 5883 5882 5881 5880 5880 5880 5880 5879 5879 5879 5879 5879 5880 5880 5880 5881 5882 5882 5883 5883 5884 5885 5886 5887 5887 5888 5889 5890
5914 5913 5912 5911 5910 5908 5907 5906 5904 5903 5901 5900 5898 5896 5894 5893 5892 5890 5889 5888 5887 5885 5884 5883 5882 5882 5881 5881 5881 5881 5881 5881 5881 5881 5882 5882 5882 5883 5883 5884 5885 5885 5886 5887 5888 5889 5889 5890 5891
5915 5915 5915 5913 5912 5911 5910 5908 5907 5905 5904 5902 5901 5899 5897 5896 5894 5893 5891 5890 5889 5888 5886 5885 5885 5884 5884 5883 5883 5883 5882 5882 5882 5883 5883 5883 5884 5884 5885 5885 5886 5886 5887 5887 5888 5889 5890 5891 5892
5918 5917 5917 5916 5914 5913 5912 5911 5910 5908 5907 5905 5903 5902 5900 5899 5897 5895 5893 5892 5891 5890 5889 5888 5887 5886 5886 5885 5885 5884 5884 5884 5884 5884 5884 5884 5885 5885 5885 5886 5886 5887 5887 5888 5889 5889 5890 5891 5892
5919 5919 5918 5917 5916 5915 5914 5913 5913 5911 5910 5908 5906 5904 5902 5901 5900 5898 5896 5895 5894 5892 5891 5890 5890 5889 5888 5887 5887 5886 5886 5885 5885 5885 5885 5885 5886 5886 5886 5886 5887 5887 5888 5888 5889 5890 5890 5891 5892
5921 5921 5920 5919 5918 5917 5917 5916 5915 5914 5913 5911 5909 5907 5905 5903 5902 5900 5899 5897 5896 5895 5894 5893 5892 5891 5890 5889 5888 5887 5887 5887 5886 5886 5886 5886 5886 5886 5886 5886 5887 5887 5888 5888 5889 5889 5890 5891 5891
5921 5922 5922 5921 5920 5919 5919 5919 5917 5916 5915 5914 5912 5910 5908 5906 5904 5902 5901 5900 5899 5898 5896 5895 5894 5893 5892 5891 5890 5889 5888 5888 5887 5887 5887 5886 5886 5886 5886 5887 5887 5888 5888 5888 5889 5889 5890 5890 5890
5922 5923 5923 5923 5922 5921 5922 5921 5920 5918 5917 5916 5914 5912 5910 5908 5907 5905 5903 5902 5901 5900 5898 5897 5896 5894 5893 5892 5891 5890 5889 5889 5888 5888 5887 5887 5887 5887 5886 5887 5887 5887 5888 5888 5889 5889 5889 5889 5889
5921 5923 5923 5924 5923 5923 5923 5922 5921 5920 5919 5918 5916 5914 5912 5910 5909 5907 5905 5904 5903 5902 5900 5899 5897 5896 5895 5894 5893 5892 5890 5890 5889 5888 5888 5887 5887 5887 5887 5887 5887 5887 5888 5888 5888 5888 5889 5889 5889
5921 5922 5923 5924 5924 5923 5923 5923 5922 5921 5921 5919 5917 5916 5914 5912 5910 5909 5907 5906 5905 5903 5902 5901 5900 5898 5897 5895 5894 5893 5892 5891 5890 5889 5888 5888 5887 5887 5887 5887 5887 5887 5887 5887 5888 5888 5888 5888 5888
5920 5921 5922 5923 5923 5924 5924 5923 5923 5922 5922 5921 5919 5917 5916 5914 5912 5910 5909 5907 5906 5905 5904 5903 5901 5900 5898 5897 5896 5895 5894 5893 5891 5890 5889 5888 5888 5887 5887 5887 5887 5887 5887 5887 5887 5887 5887 5887 5886
5919 5920 5921 5922 5923 5924 5924 5924 5924 5923 5922 5921 5920 5918 5917 5915 5913 5912 5910 5909 5908 5906 5905 5904 5903 5901 5900 5898 5897 5896 5895 5894 5893 5891 5890 5889 5888 5888 5888 5887 5887 5887 5887 5887 5887 5886 5886 5886 5885
5917 5919 5920 5921 5922 5923 5923 5924 5924 5923 5922 5922 5921 5919 5917 5916 5914 5913 5911 5910 5909 5908 5907 5905 5904 5903 5901 5900 5899 5898 5896 5895 5894 5893 5892 5890 5889 5888 5888 5888 5887 5887 5887 5887 5886 5886 5885 5885 5884
5915 5917 5918 5919 5921 5922 5923 5923 5924 5923 5922 5921 5921 5919 5918 5916 5915 5913 5912 5911 5909 5909 5908 5906 5905 5904 5902 5901 5900 5899 5898 5896 5895 5894 5893 5891 5890 5889 5889 5888 5888 5888 5887 5887 5886 5885 5884 5884 5883
5912 5914 5916 5917 5919 5920 5921 5922 5923 5922 5922 5921 5920 5919 5918 5917 5915 5914 5913 5911 5910 5910 5908 5907 5906 5905 5904 5902 5901 5900 5899 5897 5896 5895 5893 5892 5891 5890 5889 5889 5888 5888 5887 5886 5886 5884 5883 5883 5882
5909 5912 5913 5915 5916 5918 5919 5920 5922 5922 5921 5921 5920 5919 5918 5917 5916 5914 5913 5912 5911 5910 5909 5908 5907 5906 5904 5903 5902 5901 5900 5898 5897 5896 5894 5893 5892 5891 5890 5889 5888 5888 5887 5886 5885 5883 5882 5881 5880
5906 5909 5910 5912 5913 5916 5917 5918 5921 5920 5920 5919 5919 5918 5917 5917 5916 5915 5913 5913 5912 5911 5910 5909 5907 5906 5905 5904 5903 5901 5900 5899 5898 5897 5895 5894 5893 5891 5890 5889 5889 5888 5886 5885 5884 5883 5881 5880 5878
5902 5905 5908 5910 5911 5913 5915 5916 5919 5919 5918 5918 5918 5918 5917 5916 5916 5915 5914 5913 5912 5911 5910 5909 5908 5907 5905 5904 5903 5902 5901 5900 5898 5897 5896 5895 5893 5892 5891 5889 5888 5887 5886 5884 5883 5881 5880 5878 5876
5898 5900 5904 5906 5907 5910 5911 5914 5917 5917 5917 5917 5917 5917 5916 5916 5915 5914 5913 5913 5912 5911 5910 5909 5908 5907 5906 5904 5903 5902 5901 5900 5899 5897 5896 5895 5893 5892 5890 5889 5887 5886 5884 5883 5881 5879 5878 5876 5874
5893 5896 5899 5901 5903 5905 5908 5911 5914 5915 5915 5915 5915 5915 5915 5915 5914 5913 5913 5912 5912 5911 5910 5909 5908 5907 5906 5904 5903 5902 5901 5899 5898 5897 5895 5894 5893 5891 5889 5888 5886 5885 5883 5881 5879 5877 5875 5873 5871
5888 5891 5893 5896 5899 5902 5904 5909 5911 5912 5913 5913 5914 5914 5914 5913 5913 5912 5912 5911 5911 5910 5910 5909 5908 5907 5906 5904 5903 5902 5900 5899 5898 5896 5895 5893 5892 5890 5888 5887 5885 5883 5881 5879 5877 5875 5873 5871 5869
5882 5885 5889 5892 5894 5897 5900 5907 5907 5909 5910 5911 5911 5911 5912 5912 5911 5911 5910 5910 5910 5909 5909 5908 5907 5906 5905 5904 5902 5901 5900 5898 5897 5896 5894 5892 5890 5889 5887 5885 5883 5881 5879 5877 5875 5873 5870 5868 5866